This demonstration page uses our WeatherBlox Daily Observations layout. Learn more.

Left ArrowRight Arrow

Hourly Observations for March 8, 2022

Temp ( °F °C ) Dew Point ( °F °C ) Humidity (%) Winds ( mph kmh ) Pressure ( in mb ) Visibility ( mi km ) Precip ( " mm )
12:56 am 00:56 Clear 15 -9.4 9 -12.8 77 77 SW 6 9 30.23 1024 10 16 0.00 0.00
1:56 am 01:56 Clear 17 -8.3 12 -11.1 80 80 SW 6 9 30.22 1023 10 16 0.00 0.00
2:56 am 02:56 Clear 19 -7.2 12 -11.1 74 74 SW 8 13 30.18 1022 10 16 0.00 0.00
3:56 am 03:56 Clear 18 -7.8 12 -11.1 77 77 SSW 12 19 30.16 1021 10 16 0.00 0.00
4:56 am 04:56 Clear 18 -7.8 13 -10.6 81 81 SW 9 15 30.16 1022 10 16 0.00 0.00
5:56 am 05:56 Clear 20 -6.7 14 -10 78 78 SW 13 20 30.14 1021 10 16 0.00 0.00
6:56 am 06:56 Clear 18 -7.8 13 -10.6 81 81 WSW 13 20 30.15 1021 10 16 0.00 0.00
7:56 am 07:56 Sunny 20 -6.7 14 -10 78 78 WSW 3 6 30.14 1021 10 16 0.00 0.00
8:56 am 08:56 Sunny 26 -3.3 17 -8.3 69 69 WSW 10 17 30.13 1020 10 16 0.00 0.00
9:56 am 09:56 Sunny 32 0 18 -7.8 56 56 W 10 17 30.12 1020 10 16 0.00 0.00
10:56 am 10:56 Sunny 38 3.3 17 -8.3 43 43 W 12 19 30.09 1019 10 16 0.00 0.00
11:56 am 11:56 Sunny 41 5 13 -10.6 32 32 WSW 9 15 30.06 1018 10 16 0.00 0.00
12:56 pm 12:56 Sunny 44 6.7 11 -11.7 26 26 WSW 12 19 30.03 1017 10 16 0.00 0.00
1:56 pm 13:56 Sunny 46 7.8 11 -11.7 24 24 WNW 14 22 29.99 1016 10 16 0.00 0.00
2:56 pm 14:56 Sunny 46 7.8 11 -11.7 24 24 NW 10 17 29.98 1015 10 16 0.00 0.00
3:56 pm 15:56 Sunny 47 8.3 11 -11.7 23 23 NNW 14 22 29.98 1015 10 16 0.00 0.00
4:56 pm 16:56 Sunny 39 3.9 25 -3.9 57 57 N 26 43 30.03 1017 10 16 0.00 0.00
5:56 pm 17:56 Sunny 34 1.1 24 -4.4 67 67 N 23 37 30.07 1018 10 16 0.00 0.00
6:56 pm 18:56 Partly Cloudy 30 -1.1 23 -5 75 75 N 14 22 30.12 1020 10 16 0.00 0.00
7:19 pm 19:19 Mostly Cloudy 30 -1 23 -5 75 75 N 18 30 30.15 1021 10 16 0.00 0.00
7:56 pm 19:56 Partly Cloudy 28 -2.2 21 -6.1 75 75 N 15 24 30.14 1021 10 16 0.00 0.00
8:56 pm 20:56 Clear 25 -3.9 19 -7.2 78 78 N 12 19 30.15 1021 10 16 0.00 0.00
9:56 pm 21:56 Clear 23 -5 18 -7.8 81 81 NNW 9 15 30.16 1021 10 16 0.00 0.00
10:56 pm 22:56 Clear 21 -6.1 17 -8.3 85 85 N 8 13 30.14 1021 10 16 0.00 0.00
11:56 pm 23:56 Clear 19 -7.2 15 -9.4 84 84 NNW 6 9 30.14 1021 10 16 0.00 0.00

Powered by AerisWeather